CAPE
3318 3153 2896 2867 2738 2136 1927 1873 1635 1602 1549 1542 1549 1563 1626 1640 1699 1772 1914 2007 2239 2295 2060 1883 2070 1966 1752 1613 1437 1170 1163 1148 949 938 967 1453 1334 1296 1192 1155 1210 1218
3517 3278 2914 2928 2837 2552 2391 2336 2096 1983 1850 1714 1673 1667 1601 1591 1656 1808 2020 2058 2213 2294 2060 1917 2090 1984 1734 1592 1264 1065 1076 1094 943 867 931 1427 1346 1084 1104 1222 1257 1236
3679 3520 3295 3179 3047 3007 2724 2600 2442 2251 2108 1962 1866 1838 1651 1601 1645 1652 1956 2093 2199 2255 2255 2016 2017 1764 1694 1310 1196 1078 1086 1039 868 907 999 1424 1189 1126 1095 1297 1337 1241
3787 3690 3489 3355 3213 3216 3168 2772 2681 2541 2354 2198 2052 1980 1796 1632 1660 1613 1917 2106 2239 2300 2327 2146 2055 1797 1696 1440 1308 1207 1107 1044 956 996 1103 1074 1082 1152 1364 1424 1386 1334
3838 3842 3666 3449 3320 3226 3293 2982 2758 2612 2529 2370 2251 2129 1849 1666 1635 1639 1799 2157 2271 2349 2328 2274 1918 1935 1862 1690 1564 1552 1435 1222 1108 998 1067 1163 1149 1262 1507 1408 1319 1324
3825 3844 3662 3493 3448 3437 3327 3149 2831 2702 2678 2543 2411 2094 1949 1910 1682 1612 1737 2015 2189 2308 2308 2228 2009 1924 1894 1782 1621 1568 1516 1263 1299 1091 1074 1014 1162 1226 1220 1197 1138 1098
3914 3900 3721 3572 3577 3560 3496 3305 2956 2624 2583 2590 2475 2312 2068 2107 1817 1697 1766 1959 2110 2153 2141 2215 1988 1927 1857 1799 1555 1594 1490 1291 1200 1123 916 1061 1044 979 909 818 741 717
3973 3857 3760 3636 3591 3560 3569 3428 3178 2596 2666 2568 2619 2494 2270 2210 2000 1841 1848 1882 1843 1886 1952 2076 1954 2056 1961 1745 1564 1533 1317 1259 1142 899 843 816 744 834 728 598 587 571
3866 3698 3602 3578 3637 3605 3609 3469 3282 3040 2642 2703 2702 2724 2470 2260 2123 2002 1940 1902 1733 1811 1909 1954 1923 2129 1838 1598 1626 1438 1300 1208 1051 986 915 750 760 790 665 479 370 380
3730 3627 3535 3517 3455 3530 3545 3476 3318 3168 2895 2863 2711 2776 2700 2453 2285 2165 2022 1729 1714 1901 1846 1792 2098 2111 1794 1634 1607 1410 1243 1175 1131 1028 818 699 690 628 526 460 360 251
3731 3740 3622 3560 3496 3426 3521 3540 3407 3205 2972 2842 2773 2825 2804 2680 2377 2081 2151 2013 1909 1786 1856 1917 2142 2036 1748 1561 1502 1323 1235 1216 1138 985 885 829 655 471 472 416 366 273
3744 3780 3718 3633 3579 3522 3532 3550 3446 3273 3061 2674 2589 2818 2850 2806 2498 2172 2034 1910 1807 1775 1816 1846 1856 1952 1700 1551 1420 1358 1341 1262 1155 1023 915 824 680 442 409 364 345 186
3723 3713 3689 3675 3560 3530 3500 3524 3466 3301 2892 2644 2527 2723 2844 2682 2531 2304 2146 2007 1808 1618 1650 1719 1856 1856 1704 1538 1500 1460 1359 1254 1156 1069 884 762 722 475 374 330 269 203
3566 3578 3542 3545 3470 3421 3446 3484 3440 3295 2847 2601 2427 2726 2818 2645 2559 2440 2277 2105 1831 1620 1477 1493 1731 1740 1649 1551 1494 1457 1348 1215 1126 986 844 782 674 480 382 288 210 118
3504 3511 3415 3313 3288 3450 3453 3477 3385 3283 2996 2622 2444 2712 2747 2622 2643 2552 2372 2128 1856 1664 1528 1599 1836 1753 1687 1582 1489 1377 1224 1112 954 788 691 658 576 428 330 211 126 66
3612 3415 3308 3267 3266 3324 3421 3447 3411 3236 3082 2871 2822 2741 2646 2678 2640 2545 2417 2278 1991 1743 1568 1597 1835 1768 1680 1573 1423 1241 1082 983 880 724 572 489 388 276 170 93 50 0
3439 3245 3166 3147 3099 3192 3307 3447 3478 3273 2924 2760 2845 2805 2744 2699 2518 2550 2443 2348 2120 1852 1642 1506 1741 1706 1696 1574 1371 1288 1119 973 808 617 537 494 424 341 45 2 0 0
3302 3091 2974 2996 3099 3170 3252 3330 3368 3128 2950 2798 2657 2801 2724 2616 2640 2556 2456 2267 2137 1977 1681 1495 1559 1682 1680 1533 1467 1313 1088 918 777 694 650 576 482 398 76 0 0 0
3267 3004 2802 2909 3041 3114 3083 3166 3287 3116 2963 2786 2699 2777 2675 2672 2705 2566 2458 2302 2160 2041 1767 1525 1533 1678 1661 1558 1461 1318 1110 928 823 765 704 630 559 492 378 19 0 0
3223 3035 2822 2796 2814 2785 2798 2906 3237 3126 2943 2760 2686 2715 2711 2607 2590 2596 2386 2246 2128 2022 1851 1610 1648 1708 1626 1539 1464 1343 1171 967 833 790 727 674 609 564 507 408 190 0
2918 2825 2804 2708 2745 2736 2603 2718 3083 3141 2988 2811 2715 2734 2677 2550 2519 2552 2455 2199 2090 1954 1836 1678 1454 1736 1585 1538 1486 1368 1175 1006 841 790 732 693 633 569 488 522 497 330
2561 2662 2598 2691 2617 2868 2780 2808 3018 3122 2975 2870 2725 2650 2588 2472 2386 2470 2360 2190 2071 1861 1776 1668 1823 1630 1531 1477 1437 1350 1208 1015 895 794 795 786 755 685 606 497 448 497
1913 2112 2269 2332 2526 2778 2861 2799 2957 2973 2912 2794 2684 2640 2529 2413 2376 2370 2264 2124 1992 1866 1782 1625 1479 1522 1419 1363 1373 1350 1229 1059 920 814 848 841 848 779 726 583 404 416
1685 1972 2112 2183 2709 2852 2825 2673 2801 2804 2809 2777 2686 2583 2440 2358 2304 2258 2182 2093 1971 1902 1761 1649 1512 1345 1295 1305 1231 1261 1187 1058 917 839 874 872 959 858 726 523 358 333
1295 1474 1992 2276 2706 2831 2766 2604 2636 2773 2735 2661 2586 2451 2341 2267 2181 2135 2093 2016 1930 1798 1682 1536 1474 1400 1366 1327 1260 1193 1145 1051 946 845 951 1028 999 950 833 631 429 350
1254 1465 1733 2148 2616 2582 2514 2475 2521 2564 2551 2499 2380 2255 2200 2168 2086 2022 1992 1912 1856 1834 1686 1575 1500 1472 1466 1495 1426 1299 1112 916 918 816 997 1074 1047 974 812 858 655 471
Wind_Speed
40 40 38 38 37 37 36 34 32 30 26 24 24 24 25 27 27 25 25 24 24 24 27 28 28 28 27 27 28 28 27 25 25 23 20 21 22 23 23 23 20 19
40 41 40 39 40 39 37 35 33 29 25 23 24 24 25 28 26 25 26 25 25 25 28 29 30 30 30 29 29 29 27 25 25 24 20 19 22 24 21 20 20 18
37 41 41 40 41 41 39 37 33 28 24 23 23 23 25 27 27 25 26 27 26 27 28 29 31 31 31 30 29 29 27 26 25 23 20 20 22 23 21 20 18 19
34 39 43 42 43 43 44 40 33 27 24 22 21 23 25 26 27 27 27 30 28 29 30 30 31 31 31 30 29 28 28 26 25 23 23 22 21 21 21 20 20 18
30 36 44 45 45 46 47 42 35 27 22 21 21 22 24 26 27 28 28 30 30 31 31 31 31 30 29 29 29 29 29 27 26 24 24 25 24 23 22 22 20 19
30 32 39 44 46 47 46 42 37 28 21 21 20 21 22 25 27 28 29 31 31 32 32 31 30 29 27 26 27 28 29 27 25 26 25 27 27 25 23 21 20 20
32 32 32 40 45 47 47 43 37 29 22 22 22 19 22 25 28 28 30 30 33 33 33 31 29 27 26 25 26 28 29 27 25 25 26 26 27 26 25 23 22 20
32 33 34 38 43 46 45 39 33 27 23 23 20 20 22 25 28 28 28 31 32 34 32 31 29 27 26 25 27 29 29 27 25 25 26 27 27 25 25 25 23 22
33 34 36 39 41 43 41 33 28 26 25 23 21 22 24 25 27 28 28 30 31 32 32 30 29 27 26 26 26 28 29 28 27 26 26 26 28 27 25 25 24 23
35 35 37 37 36 38 36 30 27 27 26 25 24 25 25 26 27 28 28 30 31 32 31 30 31 28 26 26 27 28 28 29 28 27 26 26 27 28 25 26 26 25
37 37 36 34 32 35 35 32 29 28 29 28 27 26 27 28 26 28 29 30 30 31 30 30 30 29 28 28 27 27 28 28 28 27 27 26 27 27 26 24 26 26
38 38 36 34 34 37 37 35 32 31 30 29 28 27 27 27 27 29 30 31 30 29 28 28 29 28 27 29 29 28 28 28 28 28 28 27 27 28 26 25 25 27
39 38 37 35 36 38 39 36 33 31 30 29 28 27 26 27 28 29 31 32 32 30 27 28 30 29 28 29 30 30 30 30 29 29 29 28 28 29 28 25 26 27
40 39 36 35 38 41 41 38 36 33 30 29 30 27 26 27 28 30 33 33 33 31 29 28 29 31 29 30 32 32 32 31 31 30 30 29 29 29 29 27 27 27
42 39 36 36 40 43 42 40 38 33 31 31 30 28 28 27 28 31 33 34 32 33 32 30 29 31 30 30 32 33 33 33 32 32 32 31 30 30 29 29 28 nan
41 40 37 38 40 43 43 41 40 36 32 31 30 29 29 29 29 31 34 35 33 32 34 32 30 30 31 36 36 35 35 34 33 33 33 32 32 32 31 nan nan nan
42 40 39 39 40 43 44 43 42 39 34 32 31 30 29 30 30 32 34 35 35 34 35 33 31 30 36 38 40 41 38 36 35 33 34 34 34 33 nan nan nan nan
44 42 39 40 41 42 44 44 45 42 37 33 32 31 31 31 32 32 34 36 36 36 36 34 31 34 40 40 42 43 41 38 36 34 34 35 35 34 nan nan nan nan
46 44 41 41 41 41 43 45 46 44 38 33 31 32 34 34 33 33 35 38 38 37 37 35 31 36 41 42 43 44 45 42 36 35 35 35 36 36 35 nan nan nan
52 49 44 44 43 41 42 44 46 45 40 34 34 35 35 34 34 35 37 39 39 39 38 35 31 37 42 43 44 46 46 42 36 36 36 36 37 37 37 37 38 nan
53 50 48 47 46 43 42 43 45 46 42 37 34 34 35 35 36 37 39 39 40 40 39 35 31 40 41 43 44 47 47 43 37 37 36 37 37 37 38 39 39 39
52 51 51 50 47 46 43 42 44 44 42 38 36 36 37 38 39 39 40 40 40 41 39 35 34 41 41 44 46 48 49 41 38 38 38 37 37 37 38 40 41 40
53 50 49 48 46 45 44 42 41 41 39 39 38 39 39 39 41 42 41 42 42 41 40 34 36 36 41 44 48 51 47 39 38 38 38 38 38 37 38 40 40 40
53 51 48 47 46 43 43 43 42 41 39 40 38 39 40 41 44 45 45 44 43 41 40 36 40 39 40 41 46 50 47 40 38 38 38 39 38 37 37 38 40 43
53 52 50 48 47 46 45 44 45 43 41 41 41 42 43 46 47 47 46 45 44 42 41 39 42 38 40 43 45 47 45 39 38 37 38 39 39 38 37 38 39 41
55 53 50 48 47 47 46 46 46 45 43 43 44 46 47 49 49 48 46 44 44 42 41 40 42 39 37 42 46 47 47 41 38 38 38 40 40 40 39 38 38 40
Wind_Direction
249 248 251 251 254 257 261 264 263 263 266 272 277 282 285 288 296 302 304 304 302 303 301 299 298 301 302 302 304 304 306 305 300 297 301 308 308 303 302 306 310 316
246 248 251 252 255 258 258 258 259 259 264 270 274 278 281 289 298 303 306 309 307 308 304 302 300 301 302 302 304 304 305 307 305 299 303 309 303 297 297 304 314 319
249 246 251 256 258 259 260 255 254 254 260 266 271 275 282 287 300 307 309 312 311 311 308 304 303 304 303 303 304 304 307 308 307 304 304 303 297 296 302 310 314 323
255 249 251 256 257 258 257 256 254 251 255 264 271 274 281 288 299 312 312 314 314 314 312 310 307 306 306 305 305 305 308 310 308 303 297 289 290 298 306 311 317 319
257 252 252 254 255 257 257 259 258 251 253 262 265 273 282 291 303 313 314 313 316 317 315 313 310 309 308 306 308 306 308 308 308 303 298 298 300 306 310 315 317 321
254 256 258 256 255 256 257 261 263 253 250 262 266 272 284 295 306 313 314 314 316 319 319 316 314 311 311 307 306 306 306 309 309 308 306 304 306 310 308 311 316 321
260 260 260 259 259 256 254 259 260 253 249 253 261 276 288 297 307 311 313 315 317 321 322 318 317 315 310 306 305 306 306 309 309 306 305 302 304 309 311 314 319 319
259 260 261 260 261 257 253 255 254 248 251 254 260 278 291 298 305 306 309 314 318 322 322 321 320 317 310 306 307 309 311 307 306 306 306 306 304 308 312 311 310 315
256 258 260 262 264 257 251 249 243 243 253 261 266 276 286 294 299 303 307 312 315 317 319 320 321 315 308 307 309 312 313 309 307 306 305 304 305 308 309 308 310 310
256 255 260 264 262 250 246 242 239 241 253 261 272 276 284 287 294 302 306 309 313 315 319 320 318 314 310 311 314 316 313 311 307 303 302 303 304 305 307 306 312 312
256 256 260 263 253 242 242 242 239 243 249 261 269 276 283 288 294 299 304 308 310 316 319 318 314 313 313 313 313 312 313 309 306 303 301 302 303 302 303 305 308 313
253 253 259 260 250 242 244 243 241 244 251 258 269 276 282 288 295 297 302 308 311 315 318 316 311 313 315 315 316 314 312 309 305 303 302 302 302 302 303 303 303 302
253 252 255 257 248 242 242 244 245 245 251 261 267 272 280 286 293 299 299 305 311 314 317 313 313 314 315 315 319 317 314 311 304 302 301 301 300 302 303 302 301 301
252 252 256 257 247 241 242 245 246 245 249 256 263 272 280 287 291 296 296 300 305 310 313 310 310 310 313 317 320 318 315 312 308 302 303 301 299 300 301 302 299 300
250 251 253 255 248 243 244 246 246 247 247 252 260 268 271 280 286 292 296 299 302 305 310 310 310 310 313 318 320 319 315 314 310 306 304 303 300 301 301 301 299 nan
249 250 253 254 249 244 245 247 248 249 250 252 259 265 269 275 284 291 296 298 301 304 306 307 308 307 314 323 320 315 316 314 309 306 305 302 301 300 300 nan nan nan
246 248 250 254 250 244 242 245 250 252 253 255 258 263 270 276 281 292 297 297 300 302 303 306 308 308 316 319 319 320 317 314 310 305 302 302 300 297 nan nan nan nan
246 247 249 250 251 247 244 245 249 253 254 256 259 266 271 275 282 289 293 293 293 299 302 304 307 310 311 316 318 320 317 312 307 304 301 298 297 297 nan nan nan nan
246 247 248 247 249 250 248 248 251 253 255 255 259 265 268 274 284 289 290 292 294 299 302 303 304 306 310 314 315 316 314 310 305 301 299 297 295 296 297 nan nan nan
241 243 246 245 247 250 249 249 251 254 257 257 254 258 268 276 283 290 289 291 296 298 299 300 302 300 309 311 312 314 312 309 303 301 299 299 298 298 297 297 296 nan
244 244 242 242 245 247 249 249 251 254 260 262 258 261 270 277 285 288 288 290 293 293 294 297 294 297 305 309 311 313 312 309 304 302 300 299 298 298 296 294 293 295
243 245 246 243 242 245 249 252 252 253 260 263 262 260 262 270 276 281 286 290 291 289 291 296 285 298 303 308 311 312 312 308 306 303 301 299 299 298 296 294 294 295
247 243 246 251 247 244 248 253 254 255 256 257 261 263 265 272 279 282 281 283 286 287 289 292 281 295 302 308 311 312 308 308 306 301 300 300 299 297 296 294 294 293
251 249 244 248 251 249 251 254 256 255 257 258 262 265 268 273 276 276 277 280 284 285 287 287 276 288 299 302 308 310 309 306 305 302 298 297 296 295 292 291 293 299
250 252 250 248 251 255 254 256 258 258 257 257 258 261 266 269 272 274 275 276 279 281 284 285 277 288 299 303 305 307 305 300 301 303 301 297 294 293 290 288 289 293
249 250 250 251 255 257 255 255 256 256 255 256 257 260 265 268 270 272 275 275 276 277 277 279 280 284 297 302 304 304 305 298 297 300 302 299 296 292 289 288 289 288